This demonstration page uses our WeatherBlox Daily Observations layout. Learn more.

Left ArrowRight Arrow

Hourly Observations for April 6, 2022

Temp ( °F °C ) Dew Point ( °F °C ) Humidity (%) Winds ( mph kmh ) Pressure ( in mb ) Visibility ( mi km ) Precip ( " mm )
12:52 am 00:52 Cloudy 54 12.2 42 5.6 64 64 N 17 28 29.64 1004 10 16 0.00 0.00
1:52 am 01:52 Cloudy 52 11.1 40 4.4 64 64 NNW 20 31 29.66 1005 10 16 0.00 0.00
2:52 am 02:52 Cloudy 50 10 39 3.9 66 66 N 20 31 29.67 1005 10 16 0.00 0.00
3:52 am 03:52 Cloudy 48 8.9 39 3.9 71 71 N 16 26 29.71 1006 10 16 0.00 0.00
4:52 am 04:52 Cloudy 46 7.8 39 3.9 77 77 N 12 19 29.72 1007 10 16 0.00 0.00
5:52 am 05:52 Cloudy 45 7.2 39 3.9 80 80 NNW 6 9 29.72 1007 10 16 0.00 0.00
6:52 am 06:52 Cloudy 45 7.2 39 3.9 80 80 NW 3 6 29.73 1007 10 16 0.00 0.00
7:52 am 07:52 Cloudy 45 7.2 39 3.9 80 80 WSW 7 11 29.77 1008 10 16 0.00 0.00
8:52 am 08:52 Mostly Cloudy 46 7.8 39 3.9 77 77 WSW 6 9 29.78 1008 10 16 0.00 0.00
9:52 am 09:52 Sunny 51 10.6 38 3.3 61 61 W 15 24 29.79 1009 10 16 0.00 0.00
10:52 am 10:52 Sunny 55 12.8 35 1.7 47 47 W 12 19 29.80 1009 10 16 0.00 0.00
11:52 am 11:52 Sunny 57 13.9 32 0 39 39 NW 13 20 29.80 1009 10 16 0.00 0.00
12:52 pm 12:52 Sunny 59 15 32 0 36 36 NW 18 30 29.79 1009 10 16 0.00 0.00
1:52 pm 13:52 Sunny 60 15.6 31 -0.6 33 33 WNW 18 30 29.78 1009 10 16 0.00 0.00
2:52 pm 14:52 Sunny 61 16.1 31 -0.6 32 32 W 22 35 29.77 1008 10 16 0.00 0.00
3:52 pm 15:52 Sunny 62 16.7 26 -3.3 25 25 W 17 28 29.77 1008 10 16 0.00 0.00
4:52 pm 16:52 Mostly Sunny 62 16.7 21 -6.1 21 21 WNW 18 30 29.77 1008 10 16 0.00 0.00
5:52 pm 17:52 Sunny 61 16.1 19 -7.2 20 20 W 24 39 29.78 1009 10 16 0.00 0.00
6:52 pm 18:52 Sunny 58 14.4 24 -4.4 27 27 W 12 19 29.79 1009 10 16 0.00 0.00
7:52 pm 19:52 Partly Cloudy 57 13.9 23 -5 27 27 WNW 10 17 29.80 1009 10 16 0.00 0.00
8:52 pm 20:52 Partly Cloudy 55 12.8 24 -4.4 30 30 WNW 8 13 29.83 1010 10 16 0.00 0.00
9:52 pm 21:52 Clear 53 11.7 26 -3.3 35 35 NW 12 19 29.85 1011 10 16 0.00 0.00
10:52 pm 22:52 Partly Cloudy 49 9.4 32 0 52 52 NNW 21 33 29.89 1012 10 16 0.00 0.00
11:52 pm 23:52 Partly Cloudy 46 7.8 29 -1.7 51 51 NW 22 35 29.93 1013 10 16 0.00 0.00

Powered by AerisWeather